Content
SEND FEEDBACK

Daily
Averages
Monthly
Summary
Canada

INGONISH BEACH, NOVA SCOTIA


Home > North America > Canada > Nova Scotia
Elevation: 16 feet     Latitude: 46 39N     Longitude: 060 24W

WEATHER
 
SELECT A DAY
Number of Records: 127,587;   Date Range: 12/10/00 - 7/28/14
 
SHARE

PRINT THIS DATA

[ ← Previous Day ]
WEATHER ALMANAC - APRIL 23, 2013
[ Next Day → ]
[ °C ]   °F
Weather ElementAverageHighLow
Temperature33.1 °F41.7 °F (5:00 pm)19.6 °F (5:00 am)
Dewpoint23.8 °F31.6 °F (7:00 pm)15.1 °F (5:00 am)
Humidity68.1 %84 % (1:00 am)39 % (9:00 am)
Barometer30.74 in30.82 in (1:00 am)30.63 in (11:00 pm)
Wind Speed4.2 mph11.5 mph (12:00 pm)
Weather ElementAverage
Wind DirectionSSE (158.5 °)

Weather ElementTotal
Precipitation---
Heating Degree Days34.4 (Base 65)
Averaged from 27 records on April 23, 2013
WEATHER CONDITIONS BREAKOUT
WIND DIRECTION BREAKOUT
WEATHER BY HOUR - APRIL 23, 2013
[ °C ]   °F
Local TimeTemperatureDewpointHumidityBarometerVisibilityWind DirectionWind SpeedGust SpeedPrecipitationEventsConditions
1:00 AM23.0 °F18.9 °F84 %30.82 inWest (260°)1.2 mph
2:00 AM22.8 °F18.0 °F82 %30.81 inWest (270°)1.2 mph
3:00 AM22.0 °F16.0 °F70 %30.80 inWNW (290°)1.2 mph
3:00 AM21.6 °F16.3 °F80 %30.80 inWNW (290°)1.2 mph
4:00 AM21.0 °F16.0 °F81 %30.79 inWest (280°)2.3 mph
5:00 AM19.6 °F15.1 °F83 %30.78 inWest (280°)2.3 mph
6:00 AM19.6 °F15.1 °F83 %30.79 inWest (270°)1.2 mph
7:00 AM25.2 °F18.9 °F77 %30.79 inNE (50°)1.2 mph
8:00 AM29.1 °F15.4 °F57 %30.80 inNNE (30°)1.2 mph
9:00 AM32.0 °F17.0 °F39 %30.80 inNE (40°)2.3 mph
9:00 AM31.6 °F16.5 °F54 %30.80 inNE (40°)2.3 mph
10:00 AM36.3 °F19.4 °F50 %30.78 inENE (70°)3.5 mph
11:00 AM38.1 °F21.7 °F52 %30.77 inEast (100°)9.2 mph
12:00 PM37.4 °F25.0 °F61 %30.76 inEast (100°)11.5 mph
1:00 PM38.3 °F27.0 °F64 %30.75 inESE (110°)9.2 mph
2:00 PM40.1 °F28.0 °F62 %30.73 inESE (120°)5.8 mph
3:00 PM41.0 °F30.0 °F53 %30.71 inESE (120°)5.8 mph
3:00 PM40.8 °F29.7 °F64 %30.71 inESE (120°)5.8 mph
4:00 PM40.3 °F30.7 °F69 %30.68 inEast (100°)8.1 mph
5:00 PM41.7 °F31.5 °F67 %30.66 inSE (130°)4.6 mph
6:00 PM41.2 °F30.7 °F66 %30.66 inSSE (150°)5.8 mph
7:00 PM39.0 °F31.6 °F75 %30.65 inSSE (160°)4.6 mph
8:00 PM39.4 °F31.6 °F74 %30.65 inSouth (180°)4.6 mph
9:00 PM38.0 °F31.0 °F68 %30.65 inSouth (180°)4.6 mph
9:00 PM38.3 °F31.1 °F75 %30.65 inSouth (180°)4.6 mph
10:00 PM37.9 °F30.2 °F74 %30.64 inSouth (180°)3.5 mph
11:00 PM37.8 °F30.6 °F75 %30.63 inSouth (180°)3.5 mph
Hourly data recorded from CXIB, located miles away from Ingonish Beach, Nova Scotia







STORIES FROM OUR PARTNERS